Time,TemperatureF,DewpointF,PressureIn,WindDirection,WindDirectionDegrees,WindSpeedMPH,WindSpeedGustMPH,Humidity,HourlyPrecipIn,Conditions,Clouds,dailyrainin,SoftwareType,DateUTC
2013-09-03 00:14:00,65.6,64.0,29.87,ENE,67,0.0,0.0,93,0.00,,,0.00,weatherlink.com 1.10,2013-09-03 04:14:00,
2013-09-03 00:29:00,65.4,63.0,29.86,ENE,67,0.0,1.0,93,0.00,,,0.00,weatherlink.com 1.10,2013-09-03 04:29:00,
2013-09-03 00:44:00,65.2,63.0,29.86,ENE,67,0.0,0.0,93,0.00,,,0.00,weatherlink.com 1.10,2013-09-03 04:44:00,
2013-09-03 00:59:00,65.1,63.0,29.85,ENE,67,0.0,0.0,93,0.00,,,0.00,weatherlink.com 1.10,2013-09-03 04:59:00,
2013-09-03 01:14:00,65.2,63.0,29.85,ENE,67,0.0,1.0,93,0.00,,,0.00,weatherlink.com 1.10,2013-09-03 05:14:00,
2013-09-03 01:29:00,65.3,63.0,29.83,ENE,67,0.0,0.0,93,0.00,,,0.00,weatherlink.com 1.10,2013-09-03 05:29:00,
2013-09-03 01:46:00,65.0,63.0,29.83,ENE,67,0.0,1.0,93,0.00,,,0.00,weatherlink.com 1.10,2013-09-03 05:46:00,
2013-09-03 01:59:00,64.9,63.0,29.85,ENE,67,0.0,1.0,93,0.00,,,0.00,weatherlink.com 1.10,2013-09-03 05:59:00,
2013-09-03 02:14:00,64.8,63.0,29.84,ENE,67,0.0,1.0,93,0.00,,,0.00,weatherlink.com 1.10,2013-09-03 06:14:00,
2013-09-03 02:29:00,64.7,63.0,29.84,ENE,67,0.0,2.0,93,0.00,,,0.00,weatherlink.com 1.10,2013-09-03 06:29:00,
2013-09-03 02:44:00,64.7,63.0,29.83,ENE,67,0.0,0.0,94,0.00,,,0.00,weatherlink.com 1.10,2013-09-03 06:44:00,
2013-09-03 02:59:00,64.6,63.0,29.82,ENE,67,0.0,1.0,94,0.00,,,0.00,weatherlink.com 1.10,2013-09-03 06:59:00,
2013-09-03 03:29:00,64.6,63.0,29.83,ENE,71,0.0,4.0,94,0.00,,,0.00,weatherlink.com 1.10,2013-09-03 07:29:00,
2013-09-03 03:44:00,64.6,63.0,29.83,ENE,71,0.0,1.0,94,0.00,,,0.00,weatherlink.com 1.10,2013-09-03 07:44:00,
2013-09-03 03:59:00,64.6,63.0,29.82,ENE,71,0.0,0.0,94,0.00,,,0.00,weatherlink.com 1.10,2013-09-03 07:59:00,
2013-09-03 04:14:00,64.6,63.0,29.81,ENE,71,1.0,2.0,94,0.00,,,0.00,weatherlink.com 1.10,2013-09-03 08:14:00,
2013-09-03 04:29:00,64.5,63.0,29.81,SE,131,0.0,2.0,94,0.00,,,0.00,weatherlink.com 1.10,2013-09-03 08:29:00,
2013-09-03 04:44:00,64.9,63.0,29.82,ENE,57,0.0,5.0,94,0.00,,,0.00,weatherlink.com 1.10,2013-09-03 08:44:00,
2013-09-03 04:59:00,65.0,63.0,29.81,ENE,57,0.0,0.0,94,0.00,,,0.00,weatherlink.com 1.10,2013-09-03 08:59:00,
2013-09-03 05:14:00,65.0,63.0,29.80,ENE,57,0.0,1.0,94,0.00,,,0.00,weatherlink.com 1.10,2013-09-03 09:14:00,
2013-09-03 05:31:00,65.0,63.0,29.80,ENE,57,0.0,1.0,94,0.00,,,0.00,weatherlink.com 1.10,2013-09-03 09:31:00,
2013-09-03 05:44:00,65.0,63.0,29.80,East,80,1.0,8.0,94,0.01,,,0.01,weatherlink.com 1.10,2013-09-03 09:44:00,
2013-09-03 05:59:00,64.4,62.0,29.82,ENE,76,1.0,10.0,92,0.01,,,0.01,weatherlink.com 1.10,2013-09-03 09:59:00,
2013-09-03 06:15:00,63.3,61.0,29.82,East,97,1.0,6.0,92,0.02,,,0.02,weatherlink.com 1.10,2013-09-03 10:15:00,
2013-09-03 06:30:00,63.0,61.0,29.83,ESE,109,0.0,4.0,92,0.03,,,0.03,weatherlink.com 1.10,2013-09-03 10:30:00,
2013-09-03 06:45:00,62.9,61.0,29.85,North,5,0.0,1.0,92,0.02,,,0.03,weatherlink.com 1.10,2013-09-03 10:45:00,
2013-09-03 07:00:00,62.5,61.0,29.85,North,5,0.0,1.0,93,0.02,,,0.03,weatherlink.com 1.10,2013-09-03 11:00:00,
2013-09-03 07:15:00,62.3,60.0,29.85,ENE,68,0.0,2.0,93,0.02,,,0.04,weatherlink.com 1.10,2013-09-03 11:15:00,
2013-09-03 07:30:00,62.1,60.0,29.85,ENE,68,1.0,1.0,93,0.01,,,0.04,weatherlink.com 1.10,2013-09-03 11:30:00,
2013-09-03 07:45:00,62.0,60.0,29.86,ENE,68,0.0,1.0,93,0.01,,,0.04,weatherlink.com 1.10,2013-09-03 11:45:00,
2013-09-03 08:00:00,62.1,60.0,29.86,ENE,68,0.0,1.0,93,0.01,,,0.04,weatherlink.com 1.10,2013-09-03 12:00:00,
2013-09-03 08:15:00,62.2,60.0,29.86,East,87,0.0,3.0,92,0.00,,,0.04,weatherlink.com 1.10,2013-09-03 12:15:00,
2013-09-03 08:30:00,62.6,61.0,29.86,East,99,0.0,3.0,93,0.00,,,0.04,weatherlink.com 1.10,2013-09-03 12:30:00,
2013-09-03 08:45:00,62.7,60.0,29.87,East,99,0.0,2.0,92,0.00,,,0.04,weatherlink.com 1.10,2013-09-03 12:45:00,
2013-09-03 09:00:00,63.0,60.0,29.87,East,93,1.0,4.0,91,0.00,,,0.04,weatherlink.com 1.10,2013-09-03 13:00:00,
2013-09-03 09:15:00,63.6,61.0,29.88,East,94,2.0,5.0,90,0.00,,,0.04,weatherlink.com 1.10,2013-09-03 13:15:00,
2013-09-03 09:30:00,64.6,61.0,29.89,ESE,111,5.0,5.0,88,0.00,,,0.04,weatherlink.com 1.10,2013-09-03 13:30:00,
2013-09-03 09:45:00,65.1,62.0,29.89,ESE,105,1.0,8.0,88,0.00,,,0.04,weatherlink.com 1.10,2013-09-03 13:45:00,
2013-09-03 10:00:00,66.1,62.0,29.89,East,91,2.0,6.0,87,0.00,,,0.04,weatherlink.com 1.10,2013-09-03 14:00:00,
2013-09-03 10:15:00,67.0,62.0,29.90,ESE,105,3.0,8.0,85,0.00,,,0.04,weatherlink.com 1.10,2013-09-03 14:15:00,
2013-09-03 10:30:00,67.0,62.0,29.90,NE,46,4.0,7.0,85,0.00,,,0.04,weatherlink.com 1.10,2013-09-03 14:30:00,
2013-09-03 10:45:00,67.0,62.0,29.90,ENE,76,1.0,7.0,85,0.00,,,0.04,weatherlink.com 1.10,2013-09-03 14:45:00,
2013-09-03 11:00:00,67.4,63.0,29.90,East,98,2.0,5.0,86,0.00,,,0.04,weatherlink.com 1.10,2013-09-03 15:00:00,
2013-09-03 11:15:00,68.7,63.0,29.91,ESE,110,0.0,9.0,83,0.00,,,0.04,weatherlink.com 1.10,2013-09-03 15:15:00,
2013-09-03 11:30:00,68.8,64.0,29.91,ENE,76,3.0,9.0,83,0.00,,,0.04,weatherlink.com 1.10,2013-09-03 15:30:00,
2013-09-03 11:45:00,68.2,63.0,29.92,ENE,75,2.0,7.0,83,0.00,,,0.04,weatherlink.com 1.10,2013-09-03 15:45:00,
2013-09-03 12:00:00,68.1,63.0,29.92,ENE,74,5.0,6.0,83,0.00,,,0.04,weatherlink.com 1.10,2013-09-03 16:00:00,
2013-09-03 12:15:00,68.5,63.0,29.91,ENE,72,2.0,7.0,83,0.00,,,0.04,weatherlink.com 1.10,2013-09-03 16:15:00,
2013-09-03 12:30:00,69.6,64.0,29.91,NE,52,0.0,5.0,82,0.00,,,0.04,weatherlink.com 1.10,2013-09-03 16:30:00,
2013-09-03 12:45:00,70.4,65.0,29.91,ESE,119,1.0,5.0,82,0.00,,,0.04,weatherlink.com 1.10,2013-09-03 16:45:00,
2013-09-03 13:00:00,71.5,66.0,29.91,ESE,107,2.0,9.0,82,0.00,,,0.04,weatherlink.com 1.10,2013-09-03 17:00:00,
2013-09-03 13:15:00,72.4,66.0,29.91,SE,140,5.0,6.0,79,0.00,,,0.04,weatherlink.com 1.10,2013-09-03 17:15:00,
2013-09-03 13:30:00,73.0,65.0,29.91,East,84,5.0,7.0,76,0.00,,,0.04,weatherlink.com 1.10,2013-09-03 17:30:00,
2013-09-03 13:46:00,74.1,65.0,29.90,ESE,106,0.0,7.0,73,0.00,,,0.04,weatherlink.com 1.10,2013-09-03 17:46:00,
2013-09-03 14:01:00,75.8,66.0,29.90,ESE,102,0.0,8.0,71,0.00,,,0.04,weatherlink.com 1.10,2013-09-03 18:01:00,
2013-09-03 14:16:00,76.5,65.0,29.90,East,94,1.0,7.0,68,0.00,,,0.04,weatherlink.com 1.10,2013-09-03 18:16:00,
2013-09-03 14:31:00,77.1,65.0,29.89,NE,38,6.0,8.0,66,0.00,,,0.04,weatherlink.com 1.10,2013-09-03 18:31:00,
2013-09-03 14:46:00,77.9,64.0,29.89,East,100,2.0,8.0,63,0.00,,,0.04,weatherlink.com 1.10,2013-09-03 18:46:00,
2013-09-03 15:01:00,78.4,66.0,29.89,East,88,0.0,6.0,65,0.00,,,0.04,weatherlink.com 1.10,2013-09-03 19:01:00,
2013-09-03 15:16:00,78.7,64.0,29.88,ESE,103,0.0,11.0,61,0.00,,,0.04,weatherlink.com 1.10,2013-09-03 19:16:00,
2013-09-03 15:31:00,78.5,62.0,29.87,ENE,74,3.0,10.0,58,0.00,,,0.04,weatherlink.com 1.10,2013-09-03 19:31:00,
2013-09-03 15:46:00,78.3,62.0,29.88,ESE,103,1.0,9.0,58,0.00,,,0.04,weatherlink.com 1.10,2013-09-03 19:46:00,
2013-09-03 16:01:00,78.3,64.0,29.87,NE,53,4.0,9.0,62,0.00,,,0.04,weatherlink.com 1.10,2013-09-03 20:01:00,
2013-09-03 16:16:00,78.4,64.0,29.87,East,94,5.0,10.0,62,0.00,,,0.04,weatherlink.com 1.10,2013-09-03 20:16:00,
2013-09-03 16:33:00,78.7,64.0,29.87,ESE,105,0.0,9.0,61,0.00,,,0.04,weatherlink.com 1.10,2013-09-03 20:33:00,
2013-09-03 16:46:00,78.5,64.0,29.86,ENE,78,5.0,8.0,61,0.00,,,0.04,weatherlink.com 1.10,2013-09-03 20:46:00,
2013-09-03 17:01:00,78.6,64.0,29.86,NE,52,5.0,7.0,62,0.00,,,0.04,weatherlink.com 1.10,2013-09-03 21:01:00,
2013-09-03 17:16:00,77.2,64.0,29.87,East,83,6.0,9.0,63,0.00,,,0.04,weatherlink.com 1.10,2013-09-03 21:16:00,
2013-09-03 17:31:00,76.6,64.0,29.87,East,87,2.0,7.0,65,0.00,,,0.04,weatherlink.com 1.10,2013-09-03 21:31:00,
2013-09-03 17:46:00,77.7,65.0,29.87,NE,49,0.0,8.0,65,0.00,,,0.04,weatherlink.com 1.10,2013-09-03 21:46:00,
2013-09-03 18:01:00,77.3,64.0,29.87,WNW,284,1.0,6.0,63,0.00,,,0.04,weatherlink.com 1.10,2013-09-03 22:01:00,
2013-09-03 18:16:00,75.6,64.0,29.88,SSE,157,0.0,5.0,67,0.00,,,0.04,weatherlink.com 1.10,2013-09-03 22:16:00,
2013-09-03 18:31:00,74.3,64.0,29.88,NE,45,2.0,5.0,71,0.00,,,0.04,weatherlink.com 1.10,2013-09-03 22:31:00,
2013-09-03 18:46:00,73.4,64.0,29.88,ENE,67,0.0,3.0,72,0.00,,,0.04,weatherlink.com 1.10,2013-09-03 22:46:00,
2013-09-03 19:01:00,72.5,64.0,29.88,ENE,67,0.0,1.0,74,0.00,,,0.04,weatherlink.com 1.10,2013-09-03 23:01:00,
2013-09-03 19:16:00,71.2,64.0,29.89,ENE,67,0.0,1.0,78,0.00,,,0.04,weatherlink.com 1.10,2013-09-03 23:16:00,
2013-09-03 19:31:00,70.3,64.0,29.90,ENE,67,0.0,1.0,81,0.00,,,0.04,weatherlink.com 1.10,2013-09-03 23:31:00,
2013-09-03 19:46:00,69.6,64.0,29.90,ENE,67,0.0,0.0,83,0.00,,,0.04,weatherlink.com 1.10,2013-09-03 23:46:00,
2013-09-03 20:01:00,69.1,64.0,29.91,ENE,67,0.0,1.0,83,0.00,,,0.04,weatherlink.com 1.10,2013-09-04 00:01:00,
2013-09-03 20:18:00,67.9,63.0,29.91,ENE,67,0.0,1.0,85,0.00,,,0.04,weatherlink.com 1.10,2013-09-04 00:18:00,
2013-09-03 20:31:00,67.2,63.0,29.92,ENE,67,0.0,1.0,85,0.00,,,0.04,weatherlink.com 1.10,2013-09-04 00:31:00,
2013-09-03 20:46:00,66.6,62.0,29.93,ENE,67,0.0,2.0,86,0.00,,,0.04,weatherlink.com 1.10,2013-09-04 00:46:00,
2013-09-03 21:01:00,66.0,62.0,29.94,ENE,67,0.0,0.0,86,0.00,,,0.04,weatherlink.com 1.10,2013-09-04 01:01:00,
2013-09-03 21:16:00,65.1,61.0,29.94,ENE,67,1.0,1.0,87,0.00,,,0.04,weatherlink.com 1.10,2013-09-04 01:16:00,
2013-09-03 21:31:00,64.4,61.0,29.95,ENE,67,0.0,2.0,88,0.00,,,0.04,weatherlink.com 1.10,2013-09-04 01:31:00,
2013-09-03 21:46:00,63.8,61.0,29.96,ENE,67,0.0,0.0,89,0.00,,,0.04,weatherlink.com 1.10,2013-09-04 01:46:00,
2013-09-03 22:01:00,63.1,60.0,29.97,ENE,67,0.0,2.0,89,0.00,,,0.04,weatherlink.com 1.10,2013-09-04 02:01:00,
2013-09-03 22:16:00,62.4,60.0,29.97,ENE,67,0.0,1.0,90,0.00,,,0.04,weatherlink.com 1.10,2013-09-04 02:16:00,
2013-09-03 22:31:00,62.0,59.0,29.98,ENE,67,0.0,2.0,90,0.00,,,0.04,weatherlink.com 1.10,2013-09-04 02:31:00,
2013-09-03 22:46:00,61.4,59.0,29.98,ENE,67,0.0,2.0,91,0.00,,,0.04,weatherlink.com 1.10,2013-09-04 02:46:00,
2013-09-03 23:01:00,60.9,58.0,29.98,ENE,67,0.0,1.0,90,0.00,,,0.04,weatherlink.com 1.10,2013-09-04 03:01:00,
2013-09-03 23:16:00,60.4,58.0,29.99,ENE,67,0.0,0.0,91,0.00,,,0.04,weatherlink.com 1.10,2013-09-04 03:16:00,
2013-09-03 23:31:00,59.8,57.0,29.99,ENE,67,0.0,1.0,91,0.00,,,0.04,weatherlink.com 1.10,2013-09-04 03:31:00,
2013-09-03 23:46:00,59.4,57.0,29.99,ENE,67,0.0,0.0,91,0.00,,,0.04,weatherlink.com 1.10,2013-09-04 03:46:00,